[[{"header":{"parameterUnit":"m.s-1","parameterCategory":1,"la1":30.2991,"la2":30.254,"lo1":-89.0895,"lo2":-89.0444,"dy":0.0017,"dx":0.0017,"nx":28,"ny":28,"refTime":"2023-08-17T21:00:00:Z","depth":0,"parameterNumber":2,"parameterNumberName":"U-component_of_WINDS"},"data":[0,0,0,0,0,0,0,0,0,0,0,0,0,0,0,0,0,0,0,0,0,0,0,0,0,0,0,0,0,0,0,0,0,0,0,0,0,0,0,0,0,0,0,0,0,0,0,0,0,0,0,0,0,0,0,0,0,0,4.6526,4.6528,0,4.6675,4.6677,4.6679,4.6623,4.6619,4.6616,4.6613,4.6766,4.6773,4.678,0,0,0,0,0,0,0,0,0,0,0,0,0,4.6192,4.6198,4.6526,4.6528,4.653,4.6675,4.6677,4.6679,4.6623,4.6619,4.6615,4.6611,4.6764,4.6772,4.6781,0,0,0,0,0,0,0,0,0,0,0,0,0,4.6338,4.62,4.6525,4.6519,4.652,4.6674,4.6677,4.668,4.6624,4.6619,4.6614,4.6609,4.6761,4.6772,4.6782,4.6952,0,0,4.6816,4.682,0,0,0,0,0,0,0,0,4.633,4.6351,4.6518,4.652,4.6521,4.6625,4.6615,4.6771,4.6626,4.6585,4.6613,4.6607,4.6723,4.6737,4.6776,4.6959,4.6965,4.6817,4.6823,4.6828,4.6831,0,0,0,0,0,0,0,4.632,4.6344,4.6585,4.6521,4.6523,4.6509,4.6524,4.6644,4.6681,4.6588,4.6584,4.6603,4.6723,4.6766,4.678,4.6968,4.6816,4.6826,4.6833,4.6837,4.7294,4.7299,0,0,0,0,0,0,4.6309,4.6336,4.658,4.6589,4.6411,4.6519,4.6536,4.6597,4.6679,4.6687,4.6607,4.66,4.675,4.6767,4.6785,4.6986,4.6828,4.6838,4.6844,4.7288,4.7295,4.7301,0,0,0,0,0,0,4.6302,4.6332,4.6574,4.6462,4.6491,4.653,4.6599,4.6603,4.6645,4.6694,4.67,4.6644,4.6747,4.6769,4.691,4.6991,4.6843,4.6853,4.7281,4.729,4.7298,4.7391,0,0,0,0,0,0,4.6293,4.633,4.6395,4.6464,4.6498,4.6697,4.6604,4.6609,4.6664,4.6656,4.673,4.6737,4.6744,4.6894,4.6921,4.7003,4.6861,4.7274,4.7285,4.7295,4.7381,4.7402,4.742,0,0,0,0,0,4.6281,4.6416,4.6398,4.6428,4.658,4.6702,4.6722,4.6726,4.6671,4.6736,4.6767,4.6735,4.6978,4.6909,4.6938,4.7025,4.7269,4.7282,4.7294,4.7372,4.7398,4.7419,0,0,0,0,0,0,4.6356,4.6425,4.6406,4.6567,4.6629,4.6692,4.6775,4.6754,4.6833,4.6822,4.6825,4.6842,4.6986,4.702,4.6942,4.7192,4.7115,4.7134,4.7164,4.7189,4.7208,4.7195,4.687,0,0,0,0,0,4.6391,4.6484,4.654,4.6676,4.6708,4.6736,4.679,4.6788,4.6853,4.6879,4.692,4.6984,4.7074,4.7134,4.722,4.7386,4.74,4.746,4.748,4.7495,4.7511,4.7599,4.7626,4.7342,4.7342,4.7342,0,0,4.6464,4.6513,4.6572,4.6692,4.674,4.6836,4.6759,4.6865,4.6935,4.6895,4.7029,4.7062,4.7133,4.7287,4.7356,4.7319,4.7593,4.7511,4.7523,4.7531,4.7615,4.7642,4.7665,4.7351,4.7349,4.7348,0,0,4.6646,4.6694,4.6811,4.6861,4.6934,4.6952,4.698,4.7047,4.7067,4.7202,4.7172,4.7257,4.7414,4.7465,4.7511,4.7711,4.7684,4.774,4.7839,4.7925,4.7947,4.7967,4.8036,4.8061,4.7756,4.7756,4.7756,0,4.6728,4.6872,4.6875,4.6982,4.7035,4.7002,4.712,4.7168,4.7266,4.7303,4.726,4.7454,4.75,4.7664,4.7712,4.7752,4.7783,4.773,4.7944,4.7964,4.7982,4.8048,4.8074,4.7762,4.7761,4.7761,4.776,0,4.6968,4.7068,4.7154,4.7248,4.7311,4.7423,4.7442,4.7506,4.7498,4.752,4.7657,4.7711,4.7806,4.7845,4.784,4.8008,4.7982,4.7942,4.7864,4.8015,4.8077,4.8102,4.7771,4.7768,4.7767,4.7765,0,0,4.72,4.7294,4.7325,4.7366,4.7444,4.7522,4.7632,4.7725,4.7777,4.7846,4.7938,4.807,4.8032,4.8085,4.8085,4.8161,4.8313,4.8111,4.8113,4.8145,4.8499,4.8526,4.8556,4.8296,4.8301,4.8305,4.8492,0,4.7387,4.758,4.7585,4.7762,4.7853,4.7823,4.7919,4.7977,4.8,4.8081,4.8107,4.8199,4.8144,4.8175,4.8249,4.8279,4.8384,4.8266,4.838,4.8384,4.836,4.8588,4.8619,4.8793,4.8516,4.852,4.8523,0,4.763,4.7705,4.7891,4.7953,4.7992,4.8078,4.8162,4.824,4.8304,4.8316,4.8374,4.8363,4.8474,4.8394,4.8547,4.8467,4.8514,4.8536,4.8542,4.8551,4.8461,4.8601,4.8848,4.8873,4.8562,4.8559,4.8556,0,4.7778,4.7926,4.8055,4.8092,4.8169,4.823,4.8265,4.8324,4.8379,4.8452,4.8487,4.8574,4.862,4.8687,4.8698,4.864,4.8851,4.8773,4.8862,4.8862,4.8906,4.8903,4.9162,4.8941,4.8941,4.894,4.894,0,4.7984,4.8098,4.8122,4.8201,4.8328,4.8333,4.8457,4.8488,4.8541,4.8624,4.8605,4.8684,4.8695,4.8777,4.8787,4.8911,4.8933,4.8944,4.8945,4.8945,4.8943,4.8974,4.8961,4.8947,4.8946,4.8944,4.8943,0,4.817,4.8191,4.833,4.8391,4.8409,4.8499,4.8551,4.8626,4.8647,4.8754,4.8779,4.8812,4.8907,4.8925,4.9039,4.9045,4.9191,4.9181,4.9169,4.9167,4.9255,4.9245,4.9541,4.9578,4.9335,4.9337,4.9339,0,4.83,4.8386,4.8456,4.8511,4.8548,4.8637,4.8692,4.87,4.8758,4.8837,4.8903,4.8995,4.907,4.9223,4.9257,4.9342,4.9333,4.943,4.9345,4.9341,4.9331,4.9325,4.9332,4.9446,4.9449,4.9451,4.9452,0,4.8526,4.8531,4.8611,4.8695,4.8761,4.8828,4.8891,4.8936,4.8953,4.9019,4.9115,4.9173,4.9287,4.9379,4.9464,4.9499,4.9478,4.9479,4.9504,4.9503,4.9491,4.9496,4.9211,4.9472,4.947,4.9469,4.9467,4.9467,4.8686,4.876,4.8821,4.891,4.8958,4.9017,4.909,4.9119,4.92,4.9293,4.9293,4.9398,4.9458,4.957,4.9611,4.9693,4.9662,4.9698,4.9707,4.9715,4.9722,4.948,4.9709,4.9708,4.9708,4.9707,4.9707,0,4.8909,4.8946,4.9028,4.9116,4.9186,4.916,4.9228,4.9288,4.938,4.9438,4.9511,4.9621,4.971,4.975,4.9837,4.9894,4.9887,4.9917,4.9911,4.9919,4.9746,4.9715,4.9921,4.9921,4.9921,4.9921,4.9921,4.9921,4.9033,4.9157,4.9169,4.9316,4.9352,4.9454,4.9495,4.9548,4.9594,4.9718,4.9791,4.9816,4.9867,4.9957,5.0036,5.0046,5.0077,5.0111,5.0116,4.9954,4.9932,4.9911,4.9881,5.0119,5.0119,5.0282,5.0283,5.0285]},{"header":{"parameterUnit":"m.s-1","parameterCategory":1,"la1":30.2991,"la2":30.254,"lo1":-89.0895,"lo2":-89.0444,"dy":0.0017,"dx":0.0017,"nx":28,"ny":28,"refTime":"2023-08-17T21:00:00:Z","depth":0,"parameterNumber":3,"parameterNumberName":"V-component_of_WINDS"},"data":[0,0,0,0,0,0,0,0,0,0,0,0,0,0,0,0,0,0,0,0,0,0,0,0,0,0,0,0,0,0,0,0,0,0,0,0,0,0,0,0,0,0,0,0,0,0,0,0,0,0,0,0,0,0,0,0,0,0,1.0858,1.0859,0,1.0963,1.0965,1.0966,1.0995,1.0995,1.0994,1.0994,1.1103,1.1106,1.1109,0,0,0,0,0,0,0,0,0,0,0,0,0,1.068,1.0683,1.0857,1.0859,1.086,1.0963,1.0965,1.0966,1.0995,1.0995,1.0994,1.0993,1.1102,1.1106,1.111,0,0,0,0,0,0,0,0,0,0,0,0,0,1.0769,1.0684,1.0857,1.0887,1.0891,1.0963,1.0965,1.0966,1.0996,1.0995,1.0994,1.0993,1.11,1.1105,1.111,1.116,0,0,1.1126,1.1129,0,0,0,0,0,0,0,0,1.0764,1.0775,1.0881,1.0885,1.089,1.0965,1.0942,1.1031,1.0996,1.0956,1.0994,1.0992,1.1058,1.1066,1.1088,1.1166,1.117,1.1127,1.113,1.1132,1.1134,0,0,0,0,0,0,0,1.0758,1.0771,1.0899,1.0883,1.0888,1.0895,1.0907,1.0959,1.1011,1.0959,1.0962,1.0974,1.106,1.1083,1.1091,1.1172,1.1127,1.1131,1.1134,1.1136,1.1294,1.1295,0,0,0,0,0,0,1.0746,1.0766,1.0896,1.0903,1.0823,1.0899,1.0912,1.0942,1.101,1.102,1.0974,1.0975,1.1075,1.1085,1.1095,1.1157,1.1132,1.1137,1.114,1.1293,1.1294,1.1295,0,0,0,0,0,0,1.0742,1.0758,1.0892,1.0835,1.0852,1.0903,1.0936,1.0944,1.0968,1.1021,1.1031,1.0989,1.1074,1.1088,1.1144,1.1162,1.1139,1.1144,1.1292,1.1293,1.1295,1.1283,0,0,0,0,0,0,1.0737,1.0756,1.0776,1.0835,1.0855,1.0939,1.0937,1.0947,1.0977,1.0978,1.1038,1.1047,1.1075,1.1136,1.1149,1.1168,1.1148,1.129,1.1292,1.1294,1.1282,1.1284,1.1285,0,0,0,0,0,1.0731,1.0769,1.0777,1.0792,1.0881,1.094,1.0951,1.0983,1.0978,1.0998,1.1032,1.1045,1.1157,1.1141,1.1156,1.1177,1.1289,1.1292,1.1294,1.1281,1.1283,1.1285,0,0,0,0,0,0,1.0711,1.0777,1.0787,1.0845,1.0886,1.0945,1.0971,1.0985,1.1029,1.1028,1.1065,1.1078,1.1131,1.116,1.1141,1.1229,1.1223,1.1229,1.1208,1.1211,1.1213,1.1205,1.1152,0,0,0,0,0,1.0714,1.0756,1.0811,1.0857,1.0877,1.092,1.0947,1.0968,1.1012,1.103,1.1068,1.1111,1.1156,1.1185,1.1229,1.1285,1.1298,1.1307,1.1309,1.131,1.1315,1.1346,1.135,1.1303,1.1303,1.1303,0,0,1.0719,1.076,1.0785,1.0854,1.0889,1.0931,1.0935,1.098,1.1012,1.1037,1.1092,1.1121,1.1171,1.1227,1.1254,1.1253,1.133,1.1313,1.1314,1.1318,1.1349,1.1353,1.1357,1.1305,1.1304,1.1304,0,0,1.0751,1.0787,1.0829,1.0863,1.0915,1.0943,1.0952,1.1008,1.1029,1.1084,1.1103,1.1141,1.1218,1.1253,1.128,1.1323,1.1336,1.1336,1.1346,1.1375,1.1379,1.1383,1.1397,1.1402,1.134,1.134,1.134,0,1.0752,1.0817,1.0849,1.0893,1.0922,1.0945,1.0987,1.1019,1.1083,1.1102,1.11,1.1196,1.1231,1.1295,1.1305,1.1327,1.1339,1.133,1.1376,1.138,1.1384,1.1398,1.1404,1.134,1.134,1.134,1.134,0,1.0815,1.0859,1.0887,1.0947,1.0979,1.1022,1.106,1.1089,1.1106,1.1134,1.1189,1.1232,1.1285,1.1301,1.1319,1.1367,1.1365,1.1369,1.1364,1.1387,1.1401,1.1407,1.134,1.134,1.134,1.134,0,0,1.084,1.0915,1.0925,1.0951,1.1009,1.1044,1.1087,1.1139,1.1162,1.1205,1.1242,1.1305,1.1308,1.134,1.1361,1.1387,1.1417,1.1387,1.1389,1.1391,1.1472,1.1469,1.1475,1.1425,1.1426,1.1427,1.1467,0,1.0879,1.0957,1.0986,1.105,1.1091,1.1112,1.115,1.1189,1.1216,1.1254,1.1284,1.1328,1.133,1.1348,1.1375,1.1407,1.1433,1.1405,1.146,1.1461,1.1447,1.1482,1.148,1.1516,1.1473,1.1474,1.1475,0,1.0936,1.0978,1.1046,1.1097,1.1115,1.1149,1.1197,1.1233,1.1278,1.1295,1.1329,1.1348,1.1393,1.1385,1.1448,1.1428,1.1452,1.1471,1.1473,1.148,1.147,1.149,1.1528,1.1533,1.1484,1.1483,1.1483,0,1.0946,1.102,1.107,1.1092,1.1154,1.1176,1.1203,1.1246,1.1274,1.1317,1.1335,1.1382,1.1408,1.1443,1.1474,1.1465,1.1533,1.1528,1.1549,1.1548,1.1563,1.1562,1.1606,1.1578,1.1578,1.1578,1.1578,0,1.0987,1.1028,1.1075,1.1106,1.1152,1.1184,1.1228,1.1256,1.1294,1.133,1.1352,1.1385,1.1423,1.1462,1.1486,1.1534,1.1545,1.156,1.1566,1.1559,1.1557,1.1575,1.1574,1.1579,1.1579,1.1579,1.1579,0,1.1007,1.1041,1.1096,1.1149,1.1163,1.1195,1.124,1.127,1.1297,1.1342,1.1355,1.1397,1.1443,1.1477,1.1536,1.1553,1.1603,1.161,1.1588,1.1591,1.161,1.1608,1.1668,1.1677,1.1643,1.1643,1.1643,0,1.1032,1.1063,1.1119,1.1144,1.117,1.1211,1.124,1.1272,1.1301,1.1353,1.1377,1.1424,1.1463,1.1535,1.1571,1.1617,1.1624,1.1642,1.1631,1.1622,1.1624,1.1622,1.1625,1.1643,1.1644,1.1644,1.1644,0,1.1071,1.1085,1.1126,1.1171,1.1205,1.1242,1.128,1.13,1.1339,1.137,1.1417,1.1447,1.1507,1.1553,1.1602,1.1629,1.1643,1.1647,1.1654,1.1647,1.1633,1.164,1.1592,1.1645,1.1645,1.1645,1.1645,1.1645,1.1094,1.1122,1.1165,1.1209,1.1241,1.1275,1.1306,1.1336,1.1376,1.1427,1.1443,1.1491,1.1533,1.16,1.1627,1.1665,1.1665,1.1675,1.1678,1.168,1.1679,1.1626,1.1674,1.1674,1.1674,1.1674,1.1674,0,1.1134,1.1162,1.1202,1.1254,1.1288,1.1297,1.1339,1.1367,1.1409,1.1447,1.1485,1.1538,1.1582,1.1621,1.1667,1.169,1.1697,1.1701,1.17,1.1705,1.1677,1.1666,1.1694,1.1694,1.1694,1.1694,1.1694,1.1694,1.1159,1.1207,1.1226,1.129,1.1318,1.1365,1.1388,1.142,1.145,1.1508,1.1545,1.157,1.1608,1.1657,1.1697,1.1708,1.1724,1.1725,1.1737,1.171,1.1708,1.1705,1.1695,1.1729,1.1729,1.1762,1.1763,1.1763]}]]